User: anonymous   Login
Location: Arrien
(43.3167°N, 0.1500°W)
Time: 06:26:26
(UTC+00:00)
Language:

Cosmos 1544 Rocket - Orbit

View from above orbital plane
View from above orbital plane
View from above satellite
View from above satellite

Ground track
Ground track

The orbit data is extracted from the following two-line orbital elements,

1 14820U 84027B   22276.57597511  .00000502  00000-0  57395-4 0  9995
2 14820  82.5443 338.1259 0019337 152.9924 207.2302 14.83889043 61673
Epoch (UTC): 03 October 2022 13:49:24
Eccentricity: 0.0019337
inclination: 82.5443°
perigee height: 603 km
apogee height: 630 km
right ascension of ascending node: 338.1259°
argument of perigee: 152.9924°
revolutions per day: 14.83889043
mean anomaly at epoch: 207.2302°
orbit number at epoch: 6167

The dashed part of the orbit path shows where the satellite is in the earth's shadow,  

DLR